| time (UTC) | temp F | wind direction | speed knots | gust knots | rain 1hr in | rain 24hr in | rain mn in | humidity % | barometer mb |
| 20260507215921 | 66 | 66 | 2.6 | 4.3 | 0.00 | 0.00 | 0.00 | 50 | 1008.7 |
| 20260507215418 | 67 | 162 | 0.0 | 0.0 | 0.00 | 0.00 | 0.00 | 48 | 1008.8 |
| 20260507214915 | 68 | 157 | 2.6 | 7.0 | 0.00 | 0.00 | 0.00 | 45 | 1009.0 |
| 20260507214413 | 68 | 30 | 0.9 | 4.3 | 0.00 | 0.00 | 0.00 | 39 | 1008.9 |
| 20260507213908 | 70 | 227 | 2.6 | 2.6 | 0.00 | 0.00 | 0.00 | 40 | 1008.7 |
| 20260507213404 | 70 | 195 | 0.9 | 1.7 | 0.00 | 0.00 | 0.00 | 35 | 1008.8 |
| 20260507212901 | 69 | 106 | 0.0 | 1.7 | 0.00 | 0.00 | 0.00 | 41 | 1008.6 |
| 20260507212357 | 68 | 146 | 0.0 | 1.7 | 0.00 | 0.00 | 0.00 | 42 | 1008.5 |
| 20260507211854 | 69 | 148 | 2.6 | 2.6 | 0.00 | 0.00 | 0.00 | 41 | 1008.5 |
| 20260507211350 | 69 | 166 | 0.9 | 2.6 | 0.00 | 0.00 | 0.00 | 41 | 1008.5 |
| 20260507210848 | 68 | 174 | 0.0 | 2.6 | 0.00 | 0.00 | 0.00 | 42 | 1008.7 |
| 20260507210344 | 68 | 114 | 2.6 | 4.3 | 0.00 | 0.00 | 0.00 | 40 | 1008.6 |
| 20260507205841 | 68 | 53 | 4.3 | 6.1 | 0.00 | 0.00 | 0.00 | 42 | 1008.7 |
| 20260507205338 | 68 | 123 | 2.6 | 4.3 | 0.00 | 0.00 | 0.00 | 41 | 1008.6 |
| 20260507204834 | 69 | 153 | 1.7 | 2.6 | 0.00 | 0.00 | 0.00 | 40 | 1008.7 |
| 20260507204331 | 69 | 168 | 0.9 | 1.7 | 0.00 | 0.00 | 0.00 | 38 | 1008.6 |
| 20260507203829 | 69 | 159 | 0.0 | 0.0 | 0.00 | 0.00 | 0.00 | 38 | 1008.8 |
| 20260507203327 | 68 | 159 | 0.9 | 1.7 | 0.00 | 0.00 | 0.00 | 40 | 1008.8 |
| 20260507202823 | 67 | 192 | 0.0 | 1.7 | 0.00 | 0.00 | 0.00 | 46 | 1008.8 |
| 20260507202319 | 67 | 6 | 3.5 | 4.3 | 0.00 | 0.00 | 0.00 | 45 | 1008.9 |
| 20260507201815 | 67 | 91 | 3.5 | 6.1 | 0.00 | 0.00 | 0.00 | 42 | 1008.8 |
| 20260507201311 | 67 | 97 | 4.3 | 7.0 | 0.00 | 0.00 | 0.00 | 41 | 1008.9 |
| 20260507200807 | 68 | 192 | 2.6 | 4.3 | 0.00 | 0.00 | 0.00 | 42 | 1008.9 |
| 20260507200303 | 68 | 67 | 3.5 | 6.1 | 0.00 | 0.00 | 0.00 | 41 | 1008.7 |
| 20260507195759 | 69 | 179 | 4.3 | 6.1 | 0.00 | 0.00 | 0.00 | 40 | 1008.9 |
| 20260507195257 | 69 | 169 | 0.9 | 1.7 | 0.00 | 0.00 | 0.00 | 42 | 1009.3 |
| 20260507194754 | 67 | 119 | 2.6 | 6.1 | 0.00 | 0.00 | 0.00 | 47 | 1009.3 |
| 20260507194250 | 68 | 93 | 3.5 | 4.3 | 0.00 | 0.00 | 0.00 | 42 | 1009.0 |
| 20260507193747 | 68 | 114 | 2.6 | 2.6 | 0.00 | 0.00 | 0.00 | 43 | 1009.2 |
| 20260507193244 | 69 | 166 | 2.6 | 7.0 | 0.00 | 0.00 | 0.00 | 41 | 1009.5 |
| 20260507192740 | 69 | 179 | 4.3 | 6.1 | 0.00 | 0.00 | 0.00 | 40 | 1009.5 |
| 20260507192236 | 70 | 209 | 1.7 | 6.1 | 0.00 | 0.00 | 0.00 | 39 | 1009.6 |
| 20260507191732 | 70 | 226 | 1.7 | 4.3 | 0.00 | 0.00 | 0.00 | 36 | 1009.6 |
| 20260507191230 | 70 | 196 | 4.3 | 6.1 | 0.00 | 0.00 | 0.00 | 38 | 1009.4 |
| 20260507190726 | 69 | 155 | 3.5 | 6.1 | 0.00 | 0.00 | 0.00 | 38 | 1009.5 |
| 20260507190225 | 70 | 162 | 1.7 | 6.1 | 0.00 | 0.00 | 0.00 | 39 | 1009.7 |
| 20260507185723 | 70 | 231 | 5.2 | 6.1 | 0.00 | 0.00 | 0.00 | 40 | 1009.9 |
| 20260507185219 | 70 | 199 | 1.7 | 4.3 | 0.00 | 0.00 | 0.00 | 40 | 1010.1 |
| 20260507184717 | 70 | 201 | 6.1 | 7.0 | 0.00 | 0.00 | 0.00 | 38 | 1010.0 |
| 20260507184210 | 71 | 272 | 3.5 | 4.3 | 0.00 | 0.00 | 0.00 | 37 | 1009.9 |
| 20260507183706 | 70 | 257 | 0.0 | 2.6 | 0.00 | 0.00 | 0.00 | 39 | 1010.1 |
| 20260507183203 | 69 | 269 | 1.7 | 6.1 | 0.00 | 0.00 | 0.00 | 43 | 1010.0 |
| 20260507182700 | 69 | 117 | 1.7 | 4.3 | 0.00 | 0.00 | 0.00 | 46 | 1010.0 |
| 20260507182155 | 68 | 83 | 1.7 | 6.1 | 0.00 | 0.00 | 0.00 | 40 | 1010.2 |
| 20260507181652 | 68 | 201 | 2.6 | 4.3 | 0.00 | 0.00 | 0.00 | 41 | 1010.2 |
| 20260507181148 | 67 | 316 | 2.6 | 4.3 | 0.00 | 0.00 | 0.00 | 43 | 1010.6 |
| 20260507180639 | 67 | 230 | 4.3 | 9.6 | 0.00 | 0.00 | 0.00 | 40 | 1010.4 |
| 20260507180136 | 69 | 245 | 4.3 | 8.7 | 0.00 | 0.00 | 0.00 | 40 | 1010.5 |
| 20260507175632 | 67 | 234 | 1.7 | 4.3 | 0.00 | 0.00 | 0.00 | 40 | 1010.5 |
| 20260507175129 | 68 | 196 | 2.6 | 4.3 | 0.00 | 0.00 | 0.00 | 43 | 1010.6 |
| 20260507174626 | 67 | 183 | 4.3 | 6.1 | 0.00 | 0.00 | 0.00 | 44 | 1010.8 |
| 20260507174124 | 68 | 185 | 6.1 | 8.7 | 0.00 | 0.00 | 0.00 | 41 | 1011.0 |
| 20260507173621 | 68 | 177 | 0.9 | 6.1 | 0.00 | 0.00 | 0.00 | 42 | 1011.0 |
| 20260507173118 | 66 | 184 | 1.7 | 2.6 | 0.00 | 0.00 | 0.00 | 40 | 1010.9 |
| 20260507172614 | 66 | 198 | 2.6 | 8.7 | 0.00 | 0.00 | 0.00 | 42 | 1011.1 |
| 20260507172112 | 66 | 316 | 6.1 | 7.0 | 0.00 | 0.00 | 0.00 | 42 | 1011.2 |
| 20260507171606 | 67 | 177 | 0.9 | 2.6 | 0.00 | 0.00 | 0.00 | 42 | 1011.3 |
| 20260507171104 | 66 | 247 | 2.6 | 7.0 | 0.00 | 0.00 | 0.00 | 42 | 1011.2 |
| 20260507170601 | 65 | 288 | 3.5 | 8.7 | 0.00 | 0.00 | 0.00 | 41 | 1011.4 |
| 20260507170058 | 64 | 352 | 2.6 | 9.6 | 0.00 | 0.00 | 0.00 | 43 | 1011.3 |
| 20260507165553 | 63 | 329 | 6.1 | 8.7 | 0.00 | 0.00 | 0.00 | 43 | 1011.7 |
| 20260507165050 | 63 | 118 | 3.5 | 4.3 | 0.00 | 0.00 | 0.00 | 46 | 1011.7 |
| 20260507164547 | 64 | 57 | 0.9 | 7.0 | 0.00 | 0.00 | 0.00 | 43 | 1012.0 |
| 20260507164043 | 64 | 322 | 6.1 | 9.6 | 0.00 | 0.00 | 0.00 | 42 | 1011.8 |
| 20260507163540 | 64 | 300 | 7.8 | 9.6 | 0.00 | 0.00 | 0.00 | 42 | 1012.1 |
| 20260507163038 | 65 | 168 | 0.9 | 6.1 | 0.00 | 0.00 | 0.00 | 43 | 1012.1 |
| 20260507162538 | 64 | 280 | 4.3 | 7.0 | 0.00 | 0.00 | 0.00 | 42 | 1012.2 |
| 20260507162036 | 63 | 163 | 1.7 | 2.6 | 0.00 | 0.00 | 0.00 | 45 | 1012.3 |
| 20260507161532 | 63 | 299 | 1.7 | 7.0 | 0.00 | 0.00 | 0.00 | 43 | 1012.5 |
| 20260507161029 | 62 | 61 | 1.7 | 7.0 | 0.00 | 0.00 | 0.00 | 45 | 1012.7 |
| 20260507160525 | 62 | 150 | 2.6 | 7.0 | 0.00 | 0.00 | 0.00 | 45 | 1012.6 |
| 20260507160021 | 62 | 79 | 4.3 | 8.7 | 0.00 | 0.00 | 0.00 | 46 | 1012.7 |
| 20260507155516 | 61 | 43 | 4.3 | 7.0 | 0.00 | 0.00 | 0.00 | 45 | 1012.8 |
| 20260507155014 | 63 | 7 | 2.6 | 6.1 | 0.00 | 0.00 | 0.00 | 43 | 1012.9 |
| 20260507154511 | 61 | 320 | 2.6 | 4.3 | 0.00 | 0.00 | 0.00 | 45 | 1013.0 |
| 20260507154009 | 61 | 310 | 3.5 | 8.7 | 0.00 | 0.00 | 0.00 | 42 | 1013.0 |
| 20260507153505 | 62 | 107 | 0.9 | 2.6 | 0.00 | 0.00 | 0.00 | 43 | 1012.9 |
| 20260507153000 | 62 | 308 | 2.6 | 4.3 | 0.00 | 0.00 | 0.00 | 43 | 1013.1 |
| 20260507152457 | 60 | 258 | 2.6 | 6.1 | 0.00 | 0.00 | 0.00 | 44 | 1013.3 |
| 20260507151953 | 59 | 193 | 1.7 | 6.1 | 0.00 | 0.00 | 0.00 | 43 | 1013.3 |
| 20260507151449 | 60 | 77 | 6.1 | 8.7 | 0.00 | 0.00 | 0.00 | 45 | 1013.6 |
| 20260507150946 | 60 | 101 | 1.7 | 7.0 | 0.00 | 0.00 | 0.00 | 44 | 1013.3 |
| 20260507150443 | 60 | 9 | 9.6 | 11.3 | 0.00 | 0.00 | 0.00 | 44 | 1013.4 |
| 20260507145940 | 59 | 280 | 2.6 | 6.1 | 0.00 | 0.00 | 0.00 | 44 | 1013.5 |
| 20260507145435 | 59 | 93 | 2.6 | 4.3 | 0.00 | 0.00 | 0.00 | 49 | 1013.7 |
| 20260507144932 | 58 | 148 | 0.0 | 7.0 | 0.00 | 0.00 | 0.00 | 49 | 1013.8 |
| 20260507144429 | 58 | 80 | 9.6 | 11.3 | 0.00 | 0.00 | 0.00 | 46 | 1013.9 |
| 20260507143927 | 57 | 77 | 2.6 | 8.7 | 0.00 | 0.00 | 0.00 | 48 | 1013.9 |
| 20260507143424 | 58 | 98 | 1.7 | 6.1 | 0.00 | 0.00 | 0.00 | 48 | 1014.1 |
| 20260507142920 | 58 | 317 | 5.2 | 9.6 | 0.00 | 0.00 | 0.00 | 48 | 1014.2 |
| 20260507142416 | 57 | 60 | 0.9 | 6.1 | 0.00 | 0.00 | 0.00 | 51 | 1014.1 |
| 20260507141913 | 56 | 39 | 4.3 | 7.0 | 0.00 | 0.00 | 0.00 | 52 | 1014.1 |
| 20260507141409 | 56 | 350 | 3.5 | 6.1 | 0.00 | 0.00 | 0.00 | 51 | 1014.3 |
| 20260507140906 | 56 | 323 | 4.3 | 8.7 | 0.00 | 0.00 | 0.00 | 53 | 1014.4 |
| 20260507140403 | 56 | 317 | 2.6 | 6.1 | 0.00 | 0.00 | 0.00 | 53 | 1014.7 |
| 20260507135901 | 56 | 353 | 6.1 | 7.0 | 0.00 | 0.00 | 0.00 | 53 | 1014.4 |
| 20260507135357 | 56 | 271 | 1.7 | 4.3 | 0.00 | 0.00 | 0.00 | 53 | 1014.5 |
| 20260507134855 | 55 | 93 | 1.7 | 4.3 | 0.00 | 0.00 | 0.00 | 55 | 1014.7 |
| 20260507134351 | 55 | 100 | 5.2 | 7.0 | 0.00 | 0.00 | 0.00 | 55 | 1014.8 |
| 20260507133847 | 55 | 287 | 4.3 | 6.1 | 0.00 | 0.00 | 0.00 | 56 | 1014.7 |
| 20260507133342 | 55 | 26 | 1.7 | 4.3 | 0.00 | 0.00 | 0.00 | 57 | 1014.8 |
| 20260507132842 | 55 | 346 | 2.6 | 6.1 | 0.00 | 0.00 | 0.00 | 58 | 1014.9 |
| 20260507132337 | 55 | 324 | 4.3 | 7.0 | 0.00 | 0.00 | 0.00 | 56 | 1015.1 |
| 20260507131835 | 55 | 320 | 3.5 | 4.3 | 0.00 | 0.00 | 0.00 | 59 | 1014.9 |
| 20260507131331 | 55 | 348 | 1.7 | 4.3 | 0.00 | 0.00 | 0.00 | 59 | 1015.1 |
| 20260507130828 | 55 | 101 | 2.6 | 4.3 | 0.00 | 0.00 | 0.00 | 58 | 1014.8 |
| 20260507130325 | 55 | 60 | 1.7 | 2.6 | 0.00 | 0.00 | 0.00 | 59 | 1015.0 |
| 20260507125824 | 55 | 137 | 2.6 | 6.1 | 0.00 | 0.00 | 0.00 | 59 | 1014.7 |
| 20260507125321 | 54 | 81 | 4.3 | 6.1 | 0.00 | 0.00 | 0.00 | 60 | 1014.7 |
| 20260507124819 | 54 | 64 | 3.5 | 6.1 | 0.00 | 0.00 | 0.00 | 60 | 1015.0 |
| 20260507124315 | 54 | 146 | 0.0 | 2.6 | 0.00 | 0.00 | 0.00 | 59 | 1015.0 |
| 20260507123813 | 54 | 356 | 1.7 | 2.6 | 0.00 | 0.00 | 0.00 | 58 | 1014.8 |
| 20260507123310 | 54 | 247 | 0.0 | 1.7 | 0.00 | 0.00 | 0.00 | 59 | 1014.7 |
| 20260507122806 | 54 | 352 | 2.6 | 2.6 | 0.00 | 0.00 | 0.00 | 60 | 1015.0 |
| 20260507122306 | 53 | 52 | 1.7 | 1.7 | 0.00 | 0.00 | 0.00 | 59 | 1015.0 |
| 20260507121758 | 53 | 275 | 2.6 | 4.3 | 0.00 | 0.00 | 0.00 | 59 | 1014.9 |
| 20260507121254 | 53 | 107 | 0.9 | 4.3 | 0.00 | 0.00 | 0.00 | 60 | 1014.6 |
| 20260507120750 | 53 | 1 | 2.6 | 4.3 | 0.00 | 0.00 | 0.00 | 61 | 1014.9 |
| 20260507120247 | 53 | 150 | 0.0 | 6.1 | 0.00 | 0.00 | 0.00 | 62 | 1014.5 |
| 20260507115743 | 53 | 61 | 0.9 | 2.6 | 0.00 | 0.00 | 0.00 | 62 | 1014.6 |
| 20260507115239 | 53 | 34 | 1.7 | 6.1 | 0.00 | 0.00 | 0.00 | 61 | 1014.7 |
| 20260507114734 | 53 | 282 | 0.0 | 1.7 | 0.00 | 0.00 | 0.00 | 63 | 1014.8 |
| 20260507114232 | 53 | 180 | 0.0 | 1.7 | 0.00 | 0.00 | 0.00 | 62 | 1014.3 |
| 20260507113730 | 53 | 43 | 3.5 | 6.1 | 0.00 | 0.00 | 0.00 | 62 | 1014.5 |
| 20260507113226 | 54 | 165 | 0.0 | 2.6 | 0.00 | 0.00 | 0.00 | 64 | 1014.5 |
| 20260507112724 | 54 | 75 | 0.9 | 1.7 | 0.00 | 0.00 | 0.00 | 66 | 1014.3 |
| 20260507112221 | 54 | 253 | 0.9 | 2.6 | 0.00 | 0.00 | 0.00 | 66 | 1014.4 |
| 20260507111718 | 54 | 157 | 1.7 | 6.1 | 0.00 | 0.00 | 0.00 | 66 | 1014.2 |
| 20260507111210 | 54 | 4 | 1.7 | 4.3 | 0.00 | 0.00 | 0.00 | 67 | 1014.2 |
| 20260507110705 | 54 | 92 | 4.3 | 8.7 | 0.00 | 0.00 | 0.00 | 67 | 1013.9 |
| 20260507110202 | 54 | 96 | 0.0 | 6.1 | 0.00 | 0.00 | 0.00 | 69 | 1013.9 |
| 20260507105659 | 54 | 76 | 0.9 | 4.3 | 0.00 | 0.00 | 0.00 | 70 | 1014.0 |
| 20260507105155 | 54 | 356 | 1.7 | 2.6 | 0.00 | 0.00 | 0.00 | 70 | 1014.2 |
| 20260507104653 | 54 | 133 | 0.0 | 1.7 | 0.00 | 0.00 | 0.00 | 70 | 1014.2 |
| 20260507104149 | 54 | 122 | 0.0 | 2.6 | 0.00 | 0.00 | 0.00 | 69 | 1013.8 |
| 20260507103645 | 54 | 131 | 0.0 | 1.7 | 0.00 | 0.00 | 0.00 | 69 | 1013.8 |
| 20260507103142 | 54 | 154 | 0.0 | 0.0 | 0.00 | 0.00 | 0.00 | 69 | 1013.8 |
| 20260507102638 | 54 | 135 | 0.0 | 2.6 | 0.00 | 0.00 | 0.00 | 70 | 1013.9 |
| 20260507102134 | 54 | 80 | 0.9 | 1.7 | 0.00 | 0.00 | 0.00 | 69 | 1013.8 |
| 20260507101630 | 54 | 150 | 0.0 | 1.7 | 0.00 | 0.00 | 0.00 | 69 | 1013.4 |
| 20260507101126 | 55 | 129 | 0.9 | 1.7 | 0.00 | 0.00 | 0.00 | 70 | 1013.6 |
| 20260507100624 | 55 | 4 | 1.7 | 2.6 | 0.00 | 0.00 | 0.00 | 69 | 1013.7 |
| 20260507100122 | 55 | 2 | 0.9 | 2.6 | 0.00 | 0.00 | 0.00 | 70 | 1013.4 |
| 20260507095620 | 55 | 121 | 0.9 | 4.3 | 0.00 | 0.00 | 0.00 | 71 | 1013.2 |
| 20260507095115 | 55 | 326 | 2.6 | 2.6 | 0.00 | 0.00 | 0.00 | 70 | 1013.3 |
| 20260507094612 | 55 | 190 | 1.7 | 2.6 | 0.00 | 0.00 | 0.00 | 71 | 1013.4 |
| 20260507094109 | 55 | 333 | 2.6 | 2.6 | 0.00 | 0.00 | 0.00 | 71 | 1013.5 |
| 20260507093606 | 55 | 251 | 1.7 | 2.6 | 0.00 | 0.00 | 0.00 | 71 | 1013.2 |
| 20260507093105 | 55 | 300 | 1.7 | 2.6 | 0.00 | 0.00 | 0.00 | 71 | 1013.3 |
| 20260507092601 | 55 | 121 | 0.9 | 2.6 | 0.00 | 0.00 | 0.00 | 71 | 1013.4 |
| 20260507092058 | 55 | 8 | 1.7 | 4.3 | 0.00 | 0.00 | 0.00 | 72 | 1013.3 |
| 20260507091555 | 55 | 264 | 1.7 | 1.7 | 0.00 | 0.00 | 0.00 | 72 | 1013.2 |
| 20260507091051 | 55 | 43 | 3.5 | 4.3 | 0.00 | 0.00 | 0.00 | 71 | 1013.4 |
| 20260507090546 | 55 | 1 | 0.9 | 2.6 | 0.00 | 0.00 | 0.00 | 71 | 1013.1 |
| 20260507090044 | 55 | 71 | 2.6 | 2.6 | 0.00 | 0.00 | 0.00 | 71 | 1013.0 |
| 20260507085541 | 55 | 309 | 0.9 | 2.6 | 0.00 | 0.00 | 0.00 | 72 | 1012.9 |
| 20260507085037 | 55 | 340 | 0.9 | 1.7 | 0.00 | 0.00 | 0.00 | 73 | 1013.3 |
| 20260507084534 | 54 | 192 | 1.7 | 1.7 | 0.00 | 0.00 | 0.00 | 73 | 1013.2 |
| 20260507084031 | 54 | 235 | 0.0 | 1.7 | 0.00 | 0.00 | 0.00 | 74 | 1013.4 |
| 20260507083527 | 54 | 274 | 0.0 | 1.7 | 0.00 | 0.00 | 0.00 | 76 | 1013.3 |
| 20260507083025 | 54 | 286 | 0.0 | 0.0 | 0.00 | 0.00 | 0.00 | 78 | 1013.2 |
| 20260507082521 | 55 | 286 | 0.0 | 0.0 | 0.00 | 0.00 | 0.00 | 77 | 1013.1 |
| 20260507082017 | 54 | 286 | 0.9 | 1.7 | 0.00 | 0.00 | 0.00 | 75 | 1013.3 |
| 20260507081513 | 54 | 287 | 0.0 | 0.0 | 0.00 | 0.00 | 0.00 | 76 | 1013.3 |
| 20260507081010 | 54 | 287 | 0.0 | 1.7 | 0.00 | 0.00 | 0.00 | 76 | 1013.3 |
| 20260507080506 | 54 | 287 | 0.0 | 0.0 | 0.00 | 0.00 | 0.00 | 76 | 1013.3 |
| 20260507080002 | 54 | 287 | 0.0 | 0.0 | 0.00 | 0.00 | 0.00 | 76 | 1013.1 |
| 20260507075458 | 55 | 287 | 0.0 | 0.0 | 0.00 | 0.00 | 0.00 | 76 | 1013.1 |
| 20260507074954 | 55 | 287 | 0.0 | 0.0 | 0.00 | 0.00 | 0.00 | 76 | 1013.0 |
| 20260507074451 | 55 | 287 | 0.0 | 0.0 | 0.00 | 0.00 | 0.00 | 75 | 1012.8 |
| 20260507073950 | 55 | 288 | 0.0 | 0.0 | 0.00 | 0.00 | 0.00 | 74 | 1012.9 |
| 20260507073446 | 55 | 288 | 0.0 | 0.0 | 0.00 | 0.00 | 0.00 | 74 | 1012.9 |
| 20260507072942 | 55 | 288 | 0.0 | 0.0 | 0.00 | 0.00 | 0.00 | 72 | 1012.8 |
| 20260507072440 | 55 | 295 | 0.0 | 1.7 | 0.00 | 0.00 | 0.00 | 72 | 1012.8 |
| 20260507071937 | 55 | 297 | 0.0 | 0.0 | 0.00 | 0.00 | 0.00 | 72 | 1012.5 |
| 20260507071434 | 55 | 298 | 0.0 | 0.0 | 0.00 | 0.00 | 0.00 | 72 | 1012.8 |
| 20260507070931 | 55 | 298 | 0.0 | 1.7 | 0.00 | 0.00 | 0.00 | 71 | 1012.7 |
| 20260507070428 | 55 | 299 | 0.9 | 1.7 | 0.00 | 0.00 | 0.00 | 70 | 1012.7 |
| 20260507065925 | 55 | 302 | 0.0 | 0.0 | 0.00 | 0.00 | 0.00 | 70 | 1012.7 |
| 20260507065421 | 55 | 303 | 0.9 | 2.6 | 0.00 | 0.00 | 0.00 | 70 | 1013.0 |
| 20260507064918 | 56 | 317 | 2.6 | 2.6 | 0.00 | 0.00 | 0.00 | 70 | 1013.0 |
| 20260507064417 | 56 | 31 | 0.9 | 1.7 | 0.00 | 0.00 | 0.00 | 70 | 1013.1 |
| 20260507063914 | 56 | 308 | 2.6 | 2.6 | 0.00 | 0.00 | 0.00 | 70 | 1012.9 |
| 20260507063411 | 56 | 164 | 0.9 | 2.6 | 0.00 | 0.00 | 0.00 | 69 | 1012.9 |
| 20260507062908 | 56 | 138 | 0.9 | 1.7 | 0.00 | 0.00 | 0.00 | 70 | 1012.9 |
| 20260507062405 | 56 | 353 | 0.0 | 1.7 | 0.00 | 0.00 | 0.00 | 70 | 1013.0 |
| 20260507061903 | 56 | 347 | 0.0 | 1.7 | 0.00 | 0.00 | 0.00 | 70 | 1013.3 |
| 20260507061401 | 56 | 315 | 0.0 | 2.6 | 0.00 | 0.00 | 0.00 | 70 | 1013.2 |
| 20260507060859 | 56 | 332 | 2.6 | 4.3 | 0.00 | 0.00 | 0.00 | 70 | 1013.4 |
| 20260507060355 | 56 | 300 | 1.7 | 2.6 | 0.00 | 0.00 | 0.00 | 70 | 1013.5 |
| 20260507055852 | 56 | 208 | 0.0 | 1.7 | 0.00 | 0.00 | 0.00 | 70 | 1013.7 |
| 20260507055347 | 56 | 290 | 2.6 | 4.3 | 0.00 | 0.00 | 0.00 | 70 | 1013.6 |
| 20260507054844 | 56 | 275 | 2.6 | 2.6 | 0.00 | 0.00 | 0.00 | 70 | 1013.6 |
| 20260507054340 | 57 | 187 | 0.0 | 2.6 | 0.00 | 0.00 | 0.00 | 70 | 1013.4 |
| 20260507053838 | 57 | 352 | 2.6 | 7.0 | 0.00 | 0.00 | 0.00 | 70 | 1013.6 |
| 20260507053335 | 57 | 233 | 2.6 | 4.3 | 0.00 | 0.00 | 0.00 | 70 | 1013.5 |
| 20260507052834 | 57 | 325 | 3.5 | 4.3 | 0.00 | 0.00 | 0.00 | 70 | 1013.3 |
| 20260507052330 | 57 | 304 | 2.6 | 2.6 | 0.00 | 0.00 | 0.00 | 70 | 1013.3 |
| 20260507051828 | 57 | 190 | 0.9 | 4.3 | 0.00 | 0.00 | 0.00 | 70 | 1013.1 |
| 20260507051326 | 57 | 309 | 1.7 | 6.1 | 0.00 | 0.00 | 0.00 | 71 | 1012.9 |
| 20260507050822 | 57 | 344 | 3.5 | 6.1 | 0.00 | 0.00 | 0.00 | 71 | 1012.9 |
| 20260507050318 | 57 | 0 | 6.1 | 9.6 | 0.00 | 0.00 | 0.00 | 71 | 1013.0 |
| 20260507045816 | 57 | 27 | 2.6 | 8.7 | 0.00 | 0.00 | 0.00 | 72 | 1013.1 |
| 20260507045312 | 57 | 307 | 4.3 | 8.7 | 0.00 | 0.00 | 0.00 | 72 | 1013.2 |
| 20260507044809 | 57 | 340 | 11.3 | 16.5 | 0.00 | 0.00 | 0.00 | 72 | 1013.0 |
| 20260507044306 | 57 | 36 | 3.5 | 11.3 | 0.00 | 0.00 | 0.00 | 72 | 1013.0 |
| 20260507043802 | 58 | 303 | 2.6 | 6.1 | 0.00 | 0.00 | 0.00 | 73 | 1012.7 |
| 20260507043258 | 58 | 322 | 3.5 | 4.3 | 0.00 | 0.00 | 0.00 | 73 | 1012.5 |
| 20260507042754 | 58 | 185 | 0.9 | 2.6 | 0.00 | 0.00 | 0.00 | 73 | 1012.7 |
| 20260507042249 | 58 | 84 | 0.9 | 9.6 | 0.00 | 0.00 | 0.00 | 73 | 1012.1 |
| 20260507041747 | 58 | 95 | 1.7 | 4.3 | 0.00 | 0.00 | 0.00 | 73 | 1011.9 |
| 20260507041243 | 58 | 216 | 2.6 | 9.6 | 0.00 | 0.00 | 0.00 | 73 | 1012.8 |
| 20260507040741 | 59 | 300 | 1.7 | 6.1 | 0.00 | 0.00 | 0.00 | 73 | 1012.8 |
| 20260507040237 | 59 | 113 | 0.9 | 2.6 | 0.00 | 0.00 | 0.00 | 73 | 1012.5 |
| 20260507035733 | 59 | 109 | 1.7 | 2.6 | 0.00 | 0.14 | 0.14 | 73 | 1012.8 |
| 20260507035228 | 59 | 355 | 1.7 | 6.1 | 0.00 | 0.14 | 0.14 | 73 | 1012.2 |
| 20260507034727 | 59 | 316 | 0.0 | 2.6 | 0.00 | 0.14 | 0.14 | 72 | 1012.0 |
| 20260507034223 | 59 | 150 | 1.7 | 2.6 | 0.00 | 0.14 | 0.14 | 71 | 1012.4 |
| 20260507033722 | 59 | 90 | 2.6 | 2.6 | 0.00 | 0.14 | 0.14 | 72 | 1012.5 |
| 20260507033219 | 59 | 40 | 0.0 | 2.6 | 0.00 | 0.14 | 0.14 | 72 | 1012.7 |
| 20260507032716 | 60 | 60 | 2.6 | 4.3 | 0.00 | 0.14 | 0.14 | 71 | 1012.7 |
| 20260507032212 | 60 | 1 | 5.2 | 7.0 | 0.00 | 0.14 | 0.14 | 72 | 1012.6 |
| 20260507031709 | 60 | 83 | 3.5 | 7.0 | 0.00 | 0.14 | 0.14 | 71 | 1012.8 |
| 20260507031205 | 60 | 47 | 0.9 | 2.6 | 0.00 | 0.14 | 0.14 | 72 | 1012.5 |
| 20260507030702 | 60 | 341 | 0.0 | 2.6 | 0.00 | 0.14 | 0.14 | 72 | 1012.0 |
| 20260507030200 | 60 | 66 | 0.0 | 2.6 | 0.00 | 0.14 | 0.14 | 71 | 1011.9 |
| 20260507025657 | 60 | 64 | 4.3 | 6.1 | 0.00 | 0.14 | 0.14 | 71 | 1012.1 |
| 20260507025153 | 60 | 82 | 4.3 | 9.6 | 0.00 | 0.14 | 0.14 | 71 | 1012.2 |
| 20260507024652 | 60 | 5 | 5.2 | 7.0 | 0.00 | 0.14 | 0.14 | 71 | 1012.6 |
| 20260507024149 | 60 | 335 | 4.3 | 6.1 | 0.00 | 0.14 | 0.14 | 71 | 1012.6 |
| 20260507023644 | 61 | 350 | 6.1 | 11.3 | 0.00 | 0.14 | 0.14 | 71 | 1012.5 |
| 20260507023142 | 61 | 144 | 2.6 | 8.7 | 0.00 | 0.14 | 0.14 | 71 | 1012.4 |
| 20260507022639 | 61 | 3 | 3.5 | 6.1 | 0.00 | 0.14 | 0.14 | 71 | 1012.3 |
| 20260507022134 | 61 | 246 | 1.7 | 7.0 | 0.00 | 0.14 | 0.14 | 71 | 1012.0 |
| 20260507021631 | 61 | 328 | 4.3 | 6.1 | 0.00 | 0.14 | 0.14 | 71 | 1012.0 |
| 20260507021126 | 61 | 165 | 2.6 | 4.3 | 0.00 | 0.14 | 0.14 | 71 | 1011.6 |
| 20260507020625 | 61 | 84 | 1.7 | 2.6 | 0.00 | 0.14 | 0.14 | 71 | 1011.4 |
| 20260507020121 | 61 | 120 | 1.7 | 4.3 | 0.00 | 0.14 | 0.14 | 71 | 1011.9 |
| 20260507015620 | 62 | 153 | 0.0 | 2.6 | 0.00 | 0.14 | 0.14 | 70 | 1011.6 |
| 20260507015116 | 62 | 90 | 0.9 | 4.3 | 0.00 | 0.14 | 0.14 | 71 | 1011.7 |
| 20260507014613 | 62 | 40 | 1.7 | 4.3 | 0.00 | 0.14 | 0.14 | 70 | 1011.8 |
| 20260507014109 | 62 | 69 | 2.6 | 6.1 | 0.00 | 0.14 | 0.14 | 70 | 1011.7 |
| 20260507013606 | 62 | 39 | 1.7 | 8.7 | 0.00 | 0.14 | 0.14 | 72 | 1011.6 |
| 20260507013103 | 62 | 332 | 2.6 | 6.1 | 0.00 | 0.14 | 0.14 | 72 | 1011.8 |
| 20260507012600 | 62 | 71 | 1.7 | 2.6 | 0.00 | 0.14 | 0.14 | 72 | 1011.5 |
| 20260507012055 | 63 | 103 | 0.9 | 4.3 | 0.00 | 0.14 | 0.14 | 72 | 1011.4 |
| 20260507011554 | 63 | 78 | 2.6 | 6.1 | 0.00 | 0.14 | 0.14 | 72 | 1011.4 |
| 20260507011049 | 63 | 110 | 2.6 | 4.3 | 0.00 | 0.14 | 0.14 | 72 | 1011.1 |
| 20260507010544 | 63 | 81 | 2.6 | 4.3 | 0.00 | 0.14 | 0.14 | 73 | 1011.1 |
| 20260507010041 | 63 | 74 | 0.9 | 4.3 | 0.00 | 0.14 | 0.14 | 73 | 1011.0 |
| 20260507005538 | 64 | 168 | 0.0 | 1.7 | 0.00 | 0.14 | 0.14 | 74 | 1011.2 |
| 20260507005034 | 64 | 90 | 0.0 | 1.7 | 0.00 | 0.14 | 0.14 | 74 | 1011.3 |
| 20260507004531 | 64 | 127 | 4.3 | 6.1 | 0.00 | 0.14 | 0.14 | 73 | 1011.3 |
| 20260507004023 | 64 | 116 | 2.6 | 4.3 | 0.00 | 0.14 | 0.14 | 74 | 1011.3 |
| 20260507003518 | 64 | 59 | 0.9 | 4.3 | 0.00 | 0.14 | 0.14 | 74 | 1011.2 |
| 20260507003014 | 64 | 121 | 0.9 | 7.0 | 0.00 | 0.14 | 0.14 | 74 | 1011.0 |
| 20260507002511 | 64 | 260 | 0.9 | 2.6 | 0.00 | 0.14 | 0.14 | 74 | 1011.1 |
| 20260507002007 | 64 | 77 | 2.6 | 6.1 | 0.00 | 0.14 | 0.14 | 75 | 1011.0 |
| 20260507001503 | 64 | 75 | 2.6 | 4.3 | 0.00 | 0.14 | 0.14 | 75 | 1011.1 |
| 20260507001001 | 64 | 153 | 0.0 | 8.7 | 0.00 | 0.14 | 0.14 | 75 | 1011.0 |
| 20260507000456 | 64 | 138 | 0.0 | 4.3 | 0.00 | 0.14 | 0.14 | 75 | 1010.9 |
| 20260506235952 | 64 | 105 | 3.5 | 7.0 | 0.00 | 0.14 | 0.14 | 76 | 1010.8 |
| 20260506235450 | 65 | 68 | 0.9 | 4.3 | 0.00 | 0.14 | 0.14 | 77 | 1010.8 |
| 20260506234946 | 65 | 108 | 0.9 | 4.3 | 0.00 | 0.14 | 0.14 | 77 | 1010.7 |
| 20260506234443 | 65 | 74 | 0.9 | 7.0 | 0.00 | 0.14 | 0.14 | 77 | 1010.5 |
| 20260506233940 | 66 | 86 | 2.6 | 4.3 | 0.00 | 0.14 | 0.14 | 76 | 1010.6 |
| 20260506233437 | 67 | 48 | 2.6 | 4.3 | 0.00 | 0.14 | 0.14 | 74 | 1010.4 |
| 20260506232933 | 67 | 86 | 2.6 | 8.7 | 0.00 | 0.14 | 0.14 | 73 | 1010.2 |
| 20260506232430 | 68 | 326 | 5.2 | 7.0 | 0.00 | 0.14 | 0.14 | 72 | 1010.1 |
| 20260506231926 | 68 | 319 | 2.6 | 4.3 | 0.00 | 0.14 | 0.14 | 71 | 1010.1 |
| 20260506231423 | 68 | 351 | 0.9 | 6.1 | 0.00 | 0.14 | 0.14 | 72 | 1009.9 |
| 20260506230920 | 68 | 57 | 1.7 | 4.3 | 0.00 | 0.14 | 0.14 | 71 | 1010.1 |
| 20260506230417 | 68 | 335 | 6.1 | 7.0 | 0.00 | 0.14 | 0.14 | 71 | 1009.8 |
| 20260506225914 | 69 | 349 | 2.6 | 7.0 | 0.00 | 0.14 | 0.14 | 71 | 1009.9 |
| 20260506225411 | 69 | 11 | 1.7 | 4.3 | 0.00 | 0.14 | 0.14 | 70 | 1009.9 |
| 20260506224908 | 69 | 348 | 5.2 | 7.0 | 0.00 | 0.14 | 0.14 | 71 | 1009.6 |
| 20260506224405 | 70 | 299 | 3.5 | 7.0 | 0.00 | 0.14 | 0.14 | 73 | 1009.6 |
| 20260506223901 | 70 | 218 | 0.9 | 1.7 | 0.00 | 0.14 | 0.14 | 74 | 1009.4 |
| 20260506223356 | 70 | 132 | 0.9 | 1.7 | 0.00 | 0.14 | 0.14 | 74 | 1009.5 |
| 20260506222854 | 70 | 18 | 2.6 | 4.3 | 0.00 | 0.14 | 0.14 | 73 | 1009.4 |
| 20260506222350 | 70 | 68 | 1.7 | 4.3 | 0.00 | 0.14 | 0.14 | 72 | 1009.5 |
| 20260506221848 | 71 | 177 | 1.7 | 2.6 | 0.00 | 0.14 | 0.14 | 71 | 1009.0 |
| 20260506221345 | 71 | 156 | 1.7 | 2.6 | 0.00 | 0.14 | 0.14 | 71 | 1008.9 |
| 20260506220842 | 71 | 117 | 1.7 | 2.6 | 0.00 | 0.14 | 0.14 | 70 | 1009.0 |